Погода в Варгатере

Россия / Томская область     57°40′35″N   82°26′44″E
темп.,
°C
ветер,
м/с
пор.,
м/с
влажн.,
%
обл.,
%
осадки,
мм/ч
давл.,
гПа
погр.,
м
26 февраля, пт
пт2601:00−24ююз3996100 0.1 1017362
04:00−26ююз269898 0.0 1018131
07:00−27юз229997 0.1 102031
10:00−28з2498100 0.0 1022163
13:00−25зюз249497 0.0 1024389
16:00−23зюз3687100 0.0 1027733
19:00−25зюз2695100 0.1 1029246
22:00−26зюз3796100 0.0 1030343
27 февраля, сб
сб2701:00−27юз3697100 0.1 1031284
04:00−27юз2697100 0.1 1031289
07:00−28юз2798100 0.1 1032255
10:00−29зюз369799 0.0 1033253
13:00−25юз359299 0.1 1034486
16:00−23юз3590100 0.0 1034606
19:00−25юз2396100 0.1 103425
22:00−28юз259886 0.0 103594
28 февраля, вс
вс2801:00−30юз239847 0.0 103666
04:00−32ююз23980 0.0 103641
07:00−33ююз23980 0.0 103736
10:00−30ю24970 0.0 1037131
13:00−24ююв249419 0.0 1036302
16:00−20ююв249181 0.0 1034364
19:00−23юв249686 0.0 103285
22:00−23юв3896100 0.0 1031252
1 марта, пн
пн101:00−22вюв3795100 0.0 1027245
04:00−21в4109598 0.0 1024270
07:00−20в499599 0.1 1021334
10:00−18в41095100 0.2 1017347
13:00−14в4893100 0.4 1014415
16:00−11всв4893100 0.4 1012466
19:00−13св2795100 0.6 1011303
22:00−14св269797 0.1 1012215
2 марта, вт
вт201:00−15всв249799 0.2 1012145
04:00−16всв1297100 0.3 101185
07:00−16всв1297100 0.5 101136
10:00−15св1296100 0.1 1011123
13:00−12с1190100 0.3 1011371
16:00−10с1288100 0.1 1011477
19:00−14с2296100 0.1 101126
22:00−18ссв129789 0.0 101220